Time,TemperatureF,DewpointF,PressureIn,WindDirection,WindDirectionDegrees,WindSpeedMPH,WindSpeedGustMPH,Humidity,HourlyPrecipIn,Conditions,Clouds,dailyrainin,SoftwareType,DateUTC
2013-09-17 22:43:00,78.4,75.2,30.05,ENE,68,1.0,2.0,90,0.00,,---,0.00,VWS V14.01,2013-09-18 03:43:00,
2013-09-17 22:44:00,78.4,75.2,30.05,NE,45,0.0,1.0,90,0.00,,---,0.00,VWS V14.01,2013-09-18 03:44:00,
2013-09-17 22:45:00,78.5,75.3,30.05,NNE,22,2.0,5.0,90,0.00,,---,0.00,VWS V14.01,2013-09-18 03:45:00,
2013-09-17 22:46:00,78.5,75.0,30.05,ENE,68,1.0,3.0,89,0.00,,---,0.00,VWS V14.01,2013-09-18 03:46:00,
2013-09-17 22:47:00,78.5,75.0,30.05,ENE,68,0.0,1.0,89,0.00,,---,0.00,VWS V14.01,2013-09-18 03:47:00,
2013-09-17 22:48:00,78.5,75.0,30.05,ENE,68,0.0,2.0,89,0.00,,---,0.00,VWS V14.01,2013-09-18 03:48:00,
2013-09-17 22:49:00,78.5,75.0,30.05,East,90,0.0,1.0,89,0.00,,---,0.00,VWS V14.01,2013-09-18 03:49:00,
2013-09-17 22:50:00,78.6,75.1,30.05,ENE,68,1.0,2.0,89,0.00,,---,0.00,VWS V14.01,2013-09-18 03:50:00,
2013-09-17 22:51:00,78.5,74.7,30.05,ENE,68,2.0,5.0,88,0.00,,---,0.00,VWS V14.01,2013-09-18 03:51:00,
2013-09-17 22:52:00,78.5,74.7,30.05,NE,45,1.0,3.0,88,0.00,,---,0.00,VWS V14.01,2013-09-18 03:52:00,
2013-09-17 22:53:00,78.5,74.7,30.05,ENE,68,1.0,4.0,88,0.00,,---,0.00,VWS V14.01,2013-09-18 03:53:00,
2013-09-17 22:54:00,78.5,74.7,30.05,ENE,68,1.0,2.0,88,0.00,,---,0.00,VWS V14.01,2013-09-18 03:54:00,
2013-09-17 22:55:00,78.5,74.7,30.05,ENE,68,1.0,2.0,88,0.00,,---,0.00,VWS V14.01,2013-09-18 03:55:00,
2013-09-17 22:56:00,78.5,74.7,30.05,East,90,0.0,1.0,88,0.00,,---,0.00,VWS V14.01,2013-09-18 03:56:00,
2013-09-17 22:57:00,78.5,74.7,30.05,NNE,22,0.0,1.0,88,0.00,,---,0.00,VWS V14.01,2013-09-18 03:57:00,
2013-09-17 22:58:00,78.5,74.7,30.05,ENE,68,1.0,2.0,88,0.00,,---,0.00,VWS V14.01,2013-09-18 03:58:00,
2013-09-17 22:59:00,78.5,74.7,30.05,ENE,68,0.0,1.0,88,0.00,,---,0.00,VWS V14.01,2013-09-18 03:59:00,
2013-09-17 23:00:00,78.5,74.7,30.05,East,90,1.0,4.0,88,0.00,,---,0.00,VWS V14.01,2013-09-18 04:00:00,
2013-09-17 23:01:00,78.5,74.3,30.05,ENE,68,2.0,4.0,87,0.00,,---,0.00,VWS V14.01,2013-09-18 04:01:00,
2013-09-17 23:02:00,78.5,74.7,30.05,ENE,68,0.0,0.0,88,0.00,,---,0.00,VWS V14.01,2013-09-18 04:02:00,
2013-09-17 23:03:00,78.5,74.7,30.05,ENE,68,0.0,0.0,88,0.00,,---,0.00,VWS V14.01,2013-09-18 04:03:00,
2013-09-17 23:04:00,78.5,74.7,30.05,ENE,68,0.0,1.0,88,0.00,,---,0.00,VWS V14.01,2013-09-18 04:04:00,
2013-09-17 23:05:00,78.5,74.7,30.05,ENE,68,0.0,0.0,88,0.00,,---,0.00,VWS V14.01,2013-09-18 04:05:00,
2013-09-17 23:06:00,78.5,74.7,30.05,ENE,68,0.0,1.0,88,0.00,,---,0.00,VWS V14.01,2013-09-18 04:06:00,
2013-09-17 23:07:00,78.4,74.6,30.05,ENE,68,0.0,1.0,88,0.00,,---,0.00,VWS V14.01,2013-09-18 04:07:00,
2013-09-17 23:08:00,78.4,74.6,30.05,East,90,1.0,2.0,88,0.00,,---,0.00,VWS V14.01,2013-09-18 04:08:00,
2013-09-17 23:09:00,78.3,74.5,30.05,NNE,22,1.0,4.0,88,0.00,,---,0.00,VWS V14.01,2013-09-18 04:09:00,
2013-09-17 23:10:00,78.3,74.5,30.05,ENE,68,2.0,3.0,88,0.00,,---,0.00,VWS V14.01,2013-09-18 04:10:00,
2013-09-17 23:11:00,78.3,74.5,30.05,ENE,68,0.0,0.0,88,0.00,,---,0.00,VWS V14.01,2013-09-18 04:11:00,
2013-09-17 23:12:00,78.3,74.5,30.04,ENE,68,1.0,3.0,88,0.00,,---,0.00,VWS V14.01,2013-09-18 04:12:00,
2013-09-17 23:13:00,78.3,74.5,30.04,ENE,68,1.0,2.0,88,0.00,,---,0.00,VWS V14.01,2013-09-18 04:13:00,
2013-09-17 23:14:00,78.2,74.4,30.04,ENE,68,1.0,2.0,88,0.00,,---,0.00,VWS V14.01,2013-09-18 04:14:00,
2013-09-17 23:15:00,78.2,74.4,30.04,ENE,68,0.0,0.0,88,0.00,,---,0.00,VWS V14.01,2013-09-18 04:15:00,
2013-09-17 23:16:00,78.2,74.4,30.04,ENE,68,0.0,0.0,88,0.00,,---,0.00,VWS V14.01,2013-09-18 04:16:00,
2013-09-17 23:17:00,78.2,74.4,30.04,ENE,68,0.0,0.0,88,0.00,,---,0.00,VWS V14.01,2013-09-18 04:17:00,
2013-09-17 23:18:00,78.2,74.4,30.05,ENE,68,0.0,0.0,88,0.00,,---,0.00,VWS V14.01,2013-09-18 04:18:00,
2013-09-17 23:19:00,78.1,74.3,30.04,East,90,1.0,1.0,88,0.00,,---,0.00,VWS V14.01,2013-09-18 04:19:00,
2013-09-17 23:20:00,78.1,74.3,30.05,East,90,0.0,0.0,88,0.00,,---,0.00,VWS V14.01,2013-09-18 04:20:00,
2013-09-17 23:21:00,78.1,74.3,30.04,East,90,0.0,0.0,88,0.00,,---,0.00,VWS V14.01,2013-09-18 04:21:00,
2013-09-17 23:22:00,78.0,74.5,30.05,East,90,0.0,0.0,89,0.00,,---,0.00,VWS V14.01,2013-09-18 04:22:00,
2013-09-17 23:23:00,78.0,74.5,30.05,East,90,0.0,0.0,89,0.00,,---,0.00,VWS V14.01,2013-09-18 04:23:00,
2013-09-17 23:24:00,78.0,74.5,30.05,East,90,0.0,0.0,89,0.00,,---,0.00,VWS V14.01,2013-09-18 04:24:00,
2013-09-17 23:25:00,77.9,74.4,30.05,East,90,0.0,0.0,89,0.00,,---,0.00,VWS V14.01,2013-09-18 04:25:00,
2013-09-17 23:26:00,77.9,74.4,30.05,East,90,0.0,0.0,89,0.00,,---,0.00,VWS V14.01,2013-09-18 04:26:00,
2013-09-17 23:27:00,77.9,74.4,30.04,East,90,0.0,0.0,89,0.00,,---,0.00,VWS V14.01,2013-09-18 04:27:00,
2013-09-17 23:28:00,77.9,74.4,30.05,East,90,0.0,0.0,89,0.00,,---,0.00,VWS V14.01,2013-09-18 04:28:00,
2013-09-17 23:29:00,77.8,74.3,30.04,East,90,0.0,0.0,89,0.00,,---,0.00,VWS V14.01,2013-09-18 04:29:00,
2013-09-17 23:30:00,77.8,74.3,30.05,NNE,22,0.0,1.0,89,0.00,,---,0.00,VWS V14.01,2013-09-18 04:30:00,
2013-09-17 23:31:00,77.8,74.3,30.04,NNE,22,0.0,1.0,89,0.00,,---,0.00,VWS V14.01,2013-09-18 04:31:00,
2013-09-17 23:32:00,77.7,74.2,30.04,NNE,22,0.0,1.0,89,0.00,,---,0.00,VWS V14.01,2013-09-18 04:32:00,
2013-09-17 23:33:00,77.7,74.5,30.04,NNE,22,1.0,3.0,90,0.00,,---,0.00,VWS V14.01,2013-09-18 04:33:00,
2013-09-17 23:34:00,77.7,74.5,30.04,NNE,22,0.0,1.0,90,0.00,,---,0.00,VWS V14.01,2013-09-18 04:34:00,
2013-09-17 23:35:00,77.7,74.5,30.04,NNE,22,0.0,0.0,90,0.00,,---,0.00,VWS V14.01,2013-09-18 04:35:00,
2013-09-17 23:36:00,77.6,74.4,30.04,NNE,22,0.0,1.0,90,0.00,,---,0.00,VWS V14.01,2013-09-18 04:36:00,
2013-09-17 23:37:00,77.6,74.4,30.04,NNE,22,0.0,1.0,90,0.00,,---,0.00,VWS V14.01,2013-09-18 04:37:00,
2013-09-17 23:38:00,77.6,74.4,30.04,NNE,22,0.0,0.0,90,0.00,,---,0.00,VWS V14.01,2013-09-18 04:38:00,
2013-09-17 23:39:00,77.6,74.4,30.05,NNE,22,0.0,0.0,90,0.00,,---,0.00,VWS V14.01,2013-09-18 04:39:00,
2013-09-17 23:40:00,77.6,74.4,30.05,ENE,68,1.0,1.0,90,0.00,,---,0.00,VWS V14.01,2013-09-18 04:40:00,
2013-09-17 23:41:00,77.6,74.4,30.05,ENE,68,0.0,0.0,90,0.00,,---,0.00,VWS V14.01,2013-09-18 04:41:00,
2013-09-17 23:42:00,77.5,74.3,30.05,ENE,68,1.0,4.0,90,0.00,,---,0.00,VWS V14.01,2013-09-18 04:42:00,
2013-09-17 23:43:00,77.5,74.3,30.05,North,0,0.0,1.0,90,0.00,,---,0.00,VWS V14.01,2013-09-18 04:43:00,
2013-09-17 23:44:00,77.5,74.3,30.05,North,0,0.0,0.0,90,0.00,,---,0.00,VWS V14.01,2013-09-18 04:44:00,
2013-09-17 23:45:00,77.5,74.3,30.05,ENE,68,2.0,4.0,90,0.00,,---,0.00,VWS V14.01,2013-09-18 04:45:00,
2013-09-17 23:46:00,77.5,74.3,30.04,ENE,68,0.0,2.0,90,0.00,,---,0.00,VWS V14.01,2013-09-18 04:46:00,
2013-09-17 23:47:00,77.5,74.3,30.04,ENE,68,0.0,1.0,90,0.00,,---,0.00,VWS V14.01,2013-09-18 04:47:00,
2013-09-17 23:48:00,77.4,74.2,30.04,ENE,68,1.0,4.0,90,0.00,,---,0.00,VWS V14.01,2013-09-18 04:48:00,
2013-09-17 23:49:00,77.4,74.2,30.04,East,90,1.0,3.0,90,0.00,,---,0.00,VWS V14.01,2013-09-18 04:49:00,
2013-09-17 23:50:00,77.4,74.2,30.04,East,90,0.0,0.0,90,0.00,,---,0.00,VWS V14.01,2013-09-18 04:50:00,
2013-09-17 23:51:00,77.4,74.2,30.04,East,90,0.0,0.0,90,0.00,,---,0.00,VWS V14.01,2013-09-18 04:51:00,
2013-09-17 23:52:00,77.4,74.2,30.04,East,90,0.0,0.0,90,0.00,,---,0.00,VWS V14.01,2013-09-18 04:52:00,
2013-09-17 23:53:00,77.4,74.2,30.04,North,0,1.0,2.0,90,0.00,,---,0.00,VWS V14.01,2013-09-18 04:53:00,
2013-09-17 23:54:00,77.4,74.2,30.04,ENE,68,1.0,4.0,90,0.00,,---,0.00,VWS V14.01,2013-09-18 04:54:00,
2013-09-17 23:55:00,77.4,74.2,30.04,ENE,68,0.0,2.0,90,0.00,,---,0.00,VWS V14.01,2013-09-18 04:55:00,
2013-09-17 23:56:00,77.4,74.2,30.04,ENE,68,0.0,0.0,90,0.00,,---,0.00,VWS V14.01,2013-09-18 04:56:00,
2013-09-17 23:57:00,77.4,74.2,30.04,ENE,68,0.0,0.0,90,0.00,,---,0.00,VWS V14.01,2013-09-18 04:57:00,
2013-09-17 23:58:00,77.4,74.2,30.04,ENE,68,0.0,0.0,90,0.00,,---,0.00,VWS V14.01,2013-09-18 04:58:00,
2013-09-17 23:59:00,77.4,74.2,30.04,East,90,1.0,3.0,90,0.00,,---,0.00,VWS V14.01,2013-09-18 04:59:00,